Location: Oriwa
(40.7500°S, 175.3333°E)
Time: 09:24:18
(UTC+00:00)

Meteor 1-21 - Pass Details

Date: 03 February 2023
Orbit: 844 x 887 km, 81.2° (Epoch: 19 March)

Event Time Altitude Azimuth Distance (km) Brightness Sun altitude
Exits shadow 14:59:15 46° 5° (N) 1,139 4.5 -23.4°
Maximum altitude 15:01:01 79° 83° (E) 873 4.2 -23.2°
Drops below altitude 10° 15:06:42 10° 168° (SSE) 2,501 7.5 -22.5°
Sets 15:09:08 0° 169° (SSE) 3,447 8.4 -22.2°
